Terminal Aerodrome Forecast
Issued by NWS Sterling, VA

Current Version | Previous Version | Graphics & Text | Print | Product List | Glossary On
Versions: 1 2 3 4 5 6 7 8 9 10 11 12 13 14 15 16 17 18 19 20 21 22 23 24 25
000
FTUS41 KLWX 211100
TAFDCA
TAF
KDCA 211139Z 2112/2212 VRB03KT P6SM SCT100
     FM211400 28005KT P6SM BKN090
     FM211800 28005KT 6SM -SHRA OVC070
     FM220000 33006KT 5SM -SHRA OVC050
     FM220300 33005KT P6SM BKN050
     FM220800 34008KT P6SM OVC030=

USA.gov is the U.S. government's official web portal to all federal, state and local government web resources and services.